TimeEDT,TemperatureF,Dew PointF,Humidity,Sea Level PressureIn,VisibilityMPH,Wind Direction,Wind SpeedMPH,Gust SpeedMPH,PrecipitationIn,Events,Conditions,WindDirDegrees,DateUTC
12:55 AM,37.9,33.1,83,30.19,10.0,West,4.6,-,N/A,,Clear,260,2013-05-03 04:55:00
1:55 AM,39.0,34.0,82,30.18,10.0,West,3.5,-,N/A,,Overcast,280,2013-05-03 05:55:00
2:55 AM,39.0,35.1,86,30.17,10.0,West,4.6,-,N/A,,Mostly Cloudy,260,2013-05-03 06:55:00
3:55 AM,39.9,35.1,83,30.17,10.0,West,3.5,-,N/A,,Overcast,260,2013-05-03 07:55:00
4:55 AM,39.9,35.1,83,30.18,10.0,Calm,Calm,-,N/A,,Partly Cloudy,0,2013-05-03 08:55:00
5:55 AM,39.0,35.1,86,30.19,10.0,Calm,Calm,-,N/A,,Mostly Cloudy,0,2013-05-03 09:55:00
6:55 AM,46.0,36.0,68,30.19,10.0,ENE,5.8,-,N/A,,Partly Cloudy,60,2013-05-03 10:55:00
7:55 AM,48.0,35.1,61,30.20,10.0,ENE,8.1,-,N/A,,Clear,60,2013-05-03 11:55:00
8:55 AM,52.0,36.0,54,30.19,10.0,East,5.8,-,N/A,,Clear,80,2013-05-03 12:55:00
9:55 AM,59.0,37.9,46,30.19,10.0,East,5.8,-,N/A,,Clear,90,2013-05-03 13:55:00
10:55 AM,63.0,39.0,41,30.18,10.0,East,8.1,-,N/A,,Overcast,80,2013-05-03 14:55:00
11:55 AM,66.0,39.0,37,30.17,10.0,ESE,10.4,-,N/A,,Clear,120,2013-05-03 15:55:00
12:55 PM,66.0,37.9,36,30.16,10.0,ESE,10.4,19.6,N/A,,Mostly Cloudy,110,2013-05-03 16:55:00
1:55 PM,66.9,39.0,36,30.15,10.0,ESE,12.7,-,N/A,,Mostly Cloudy,120,2013-05-03 17:55:00
2:55 PM,66.9,37.0,33,30.15,10.0,ESE,16.1,25.3,N/A,,Mostly Cloudy,120,2013-05-03 18:55:00
3:55 PM,66.0,37.0,34,30.15,10.0,ESE,12.7,23.0,N/A,,Overcast,120,2013-05-03 19:55:00
4:55 PM,64.9,37.0,36,30.14,10.0,ESE,15.0,24.2,N/A,,Mostly Cloudy,110,2013-05-03 20:55:00
5:55 PM,64.9,36.0,34,30.15,10.0,ESE,12.7,-,N/A,,Overcast,120,2013-05-03 21:55:00
6:55 PM,64.0,37.0,37,30.14,10.0,ESE,9.2,16.1,N/A,,Overcast,110,2013-05-03 22:55:00
7:55 PM,64.0,37.9,38,30.14,10.0,East,5.8,-,N/A,,Mostly Cloudy,100,2013-05-03 23:55:00
8:55 PM,63.0,37.9,40,30.14,10.0,East,5.8,-,N/A,,Mostly Cloudy,90,2013-05-04 00:55:00
9:55 PM,63.0,37.9,40,30.14,10.0,ESE,5.8,-,N/A,,Overcast,110,2013-05-04 01:55:00
10:55 PM,61.0,39.9,46,30.14,10.0,East,4.6,-,N/A,,Partly Cloudy,100,2013-05-04 02:55:00
11:55 PM,61.0,39.9,46,30.13,10.0,ESE,6.9,-,N/A,,Clear,110,2013-05-04 03:55:00